STARLINK-3138 (49430 NORAD) Tracking and Keplerian Element Data

This shows tracking and keplerian element data for the satellite.

Feedback or suggestion? Click here.




ElementValue
Catalog49430
NameSTARLINK-3138
Epoch Orbit367
Epoch Day15.91668981
Epoch Year2022
RAAN185.357
Inclination53.2173
Eccentricity0.0001419
Argument of Perigee68.2145
Mean Anonmoly106.5163
Mean Motion15.25700659
Decay Rate-0.00651523
L11 49430U 21104Y 22015.91668981 -.00651523 00000+0 -27168-1 0 9994
L22 49430 53.2173 185.3570 0001419 68.2145 106.5163 15.25700659 3671

Live tracking and technical data element details for STARLINK-3138 (NORAD 49430). STARLINK-3138 can be tracked NOW for your location showing map with azimuth and elevation plus other details from your city location.

Track the satellite on the map from your city or location and see movement details for azimuth, elevation, latitude, longitude, range, height, and movement on the map or in text.







IsCatalogInMostPopularTable: catalog: 49430, numindb: 10
Update: records affected: 1



GetName: 49430 STARLINK-3138

Hit Count: updated at: Thu, 20 Jan 2022 18:01:13 GMT